Aérodrome :
LOGIN :

S'inscrire | Disclaimer

   EN    FR    IT 

 










Légende :    VFR   VFR Marginal   IFR   IFR Intensif   IFR Très Intensif
Visi : 
Plafond : 
>= 8 km
>= 3000ft
5 à 8 km
1000 à 3000 ft
1500m à 5 km
500 à 1000 ft
800 à 1500m
200 à 500 ft
< 800m
< 200 ft
Symboles :   Orages  Brouillard  Fortes neiges  Fortes précipitations  Vent > 20 kt
SIGMETs :   Divers  Orages  Givrage  Turbulence  Onde Orograph.  Cendres Volcan.







- Altitude de l'aérodrome : 56 ft


LPOV - Ovar Air Base

DERNIER METAR :
  • 250400Z 18003KT 8000 FEW005 SCT012 12/11 Q1017

METARs EXPIRÉS :
  • 250300Z VRB02KT 8000 FEW005 SCT012 12/11 Q1017
  • 250200Z VRB02KT CAVOK 13/12 Q1016

TAF TAF LPOV
Valide du 25 à 00h jusqu'au 26 à 00h UTC


242305Z 2500/2524 35012KT 9999 FEW015
PROB40 2502/2508 0200 FG BKN002
TEMPO 2509/2518 36015G25KT
Pas de NOTAMs connus pour ce terrain.



MET'MAP, la Météo Aéronautique d'un coup d'oeil ! - Copyright ORBIFLY Décembre 2007 - Disclaimer

ORBIFLY MET'MAP TEAM :

Programmation & Développement : Alexandra Zaïnal
Conception & Développement : Baudouin d'Aumeries
Co-Programmation & Développement : Marc-Olivier Méhu
Soutien technique & logistique : Manuel Goepfert

Contact : metmap@orbifly.com




SOURCES & CREDITS :

   NOAA